Aeroporto :
LOGIN :

Iscrizione | Disclaimer

   EN    FR    IT 

 










Sommario :    VFR   VFR Marginale   IFR   IFR Intensivo   IFR Molto Intensivo
Visibilità : 
Base nubi : 
>= 8 km
>= 3000ft
5 / 8 km
1000 / 3000 ft
1500m / 5 km
500 / 1000 ft
800 / 1500m
200 / 500 ft
< 800m
< 200 ft
Simboli :   Temporali  Nebbia  Neve Forte  Precipitazioni Forti  Vento > 20 kt
SIGMETs :   Varie  Temporali  Ghiacco  Turbolenza  Onda orograficha  Ceneri Vulcaniche







- Altitudine del aeroporto : 751 ft
- Codice IATA : ENC
- Carte del aeroporto


LFSN - Nancy Essey

ULTIMO METAR :
  • 170930Z AUTO 33003KT 240V050 CAVOK 27/14 Q1016

METARs OBSOLETI :
  • 170900Z AUTO 29005KT 250V350 CAVOK 25/13 Q1016
  • 170830Z AUTO 32006KT 280V020 CAVOK 25/12 Q1016
  • 170800Z AUTO VRB03KT CAVOK 25/13 Q1016
  • 170730Z AUTO VRB02KT CAVOK 24/13 Q1016
  • 170700Z AUTO VRB03KT CAVOK 23/14 Q1016

Previsioni scadute.
Nessun NOTAM noto per questo aeroporto.



MetMap, La meteo Aeronautica in un colpo d'occhio ! - Copyright ORBIFLY Dicembre 2007 - Disclaimer

ORBIFLY MET'MAP TEAM :

Programmazione e sviluppo : Alexandra Zaïnal
Concezione e sviluppo : Baudouin d'Aumeries
Co-Programmazione e sviluppo : Marc-Olivier Méhu
Supporto tecnico e logistico : Manuel Goepfert
Aiuto per la traduzione : Arnaldo La Scala

Contatto : metmap@orbifly.com




FONTI E CREDITI :

   NOAA